| time (UTC) | temp F | wind direction | speed MPH | gust MPH | rain 1hr in | rain 24hr in | rain mn in | humidity % | barometer mb |
| 20260505010511 | 62 | 282 | 2.0 | 3.0 | 0.00 | 0.02 | 0.00 | 69 | 1010.5 |
| 20260505010009 | 62 | 295 | 2.0 | 4.0 | 0.00 | 0.02 | 0.00 | 69 | 1010.5 |
| 20260505005509 | 62 | 312 | 3.0 | 4.0 | 0.00 | 0.02 | 0.00 | 68 | 1010.5 |
| 20260505005013 | 62 | 328 | 2.0 | 4.0 | 0.00 | 0.02 | 0.00 | 69 | 1010.6 |
| 20260505004510 | 62 | 322 | 2.0 | 4.0 | 0.00 | 0.02 | 0.00 | 70 | 1010.7 |
| 20260505004010 | 61 | 296 | 2.0 | 2.0 | 0.00 | 0.02 | 0.00 | 71 | 1010.7 |
| 20260505003511 | 61 | 296 | 2.0 | 3.0 | 0.00 | 0.02 | 0.00 | 72 | 1010.7 |
| 20260505003013 | 61 | 282 | 4.0 | 5.0 | 0.00 | 0.02 | 0.00 | 72 | 1010.8 |
| 20260505002510 | 61 | 299 | 2.0 | 7.0 | 0.00 | 0.02 | 0.00 | 73 | 1010.9 |
| 20260505002019 | 61 | 297 | 5.0 | 7.0 | 0.00 | 0.02 | 0.00 | 73 | 1010.9 |
| 20260505001510 | 61 | 303 | 5.0 | 5.0 | 0.00 | 0.02 | 0.00 | 73 | 1010.9 |
| 20260505001013 | 61 | 282 | 4.0 | 5.0 | 0.00 | 0.02 | 0.00 | 72 | 1011.1 |
| 20260505000511 | 61 | 319 | 4.0 | 5.0 | 0.00 | 0.02 | 0.00 | 72 | 1011.3 |
| 20260505000013 | 61 | 335 | 3.0 | 4.0 | 0.00 | 0.02 | 0.00 | 71 | 1011.3 |
| 20260504235513 | 61 | 353 | 0.0 | 13.0 | 0.00 | 0.02 | 0.00 | 72 | 1011.3 |
| 20260504235016 | 61 | 356 | 2.0 | 14.0 | 0.00 | 0.02 | 0.00 | 73 | 1011.4 |
| 20260504234516 | 60 | 325 | 4.0 | 11.0 | 0.01 | 0.02 | 0.00 | 75 | 1011.3 |
| 20260504234013 | 60 | 13 | 11.0 | 12.0 | 0.01 | 0.02 | 0.00 | 76 | 1011.3 |
| 20260504233517 | 60 | 37 | 0.0 | 7.0 | 0.01 | 0.02 | 0.00 | 76 | 1011.4 |
| 20260504233010 | 60 | 80 | 5.0 | 6.0 | 0.02 | 0.02 | 0.00 | 75 | 1011.6 |
| 20260504232513 | 60 | 54 | 4.0 | 12.0 | 0.02 | 0.02 | 0.00 | 75 | 1011.8 |
| 20260504232010 | 60 | 43 | 8.0 | 8.0 | 0.02 | 0.02 | 0.00 | 75 | 1012.0 |
| 20260504231516 | 60 | 48 | 4.0 | 8.0 | 0.02 | 0.02 | 0.00 | 75 | 1012.0 |
| 20260504231013 | 61 | 70 | 7.0 | 13.0 | 0.02 | 0.02 | 0.00 | 72 | 1012.1 |
| 20260504230520 | 62 | 94 | 9.0 | 9.0 | 0.02 | 0.02 | 0.00 | 65 | 1012.2 |
| 20260504230010 | 62 | 15 | 6.0 | 11.0 | 0.02 | 0.02 | 0.00 | 68 | 1012.0 |
| 20260504225513 | 62 | 358 | 6.0 | 8.0 | 0.01 | 0.01 | 0.00 | 67 | 1012.2 |
| 20260504225010 | 62 | 37 | 6.0 | 11.0 | 0.01 | 0.01 | 0.00 | 68 | 1012.6 |
| 20260504224513 | 62 | 43 | 1.0 | 5.0 | 0.00 | 0.00 | 0.00 | 69 | 1012.9 |
| 20260504224013 | 62 | 201 | 0.0 | 4.0 | 0.00 | 0.00 | 0.00 | 68 | 1013.4 |
| 20260504223514 | 62 | 194 | 2.0 | 4.0 | 0.00 | 0.00 | 0.00 | 67 | 1013.6 |
| 20260504223010 | 63 | 172 | 2.0 | 15.0 | 0.00 | 0.00 | 0.00 | 66 | 1013.7 |
| 20260504222510 | 64 | 132 | 7.0 | 15.0 | 0.00 | 0.00 | 0.00 | 64 | 1013.7 |
| 20260504222019 | 66 | 120 | 5.0 | 7.0 | 0.00 | 0.00 | 0.00 | 57 | 1013.2 |
| 20260504221510 | 66 | 167 | 3.0 | 5.0 | 0.00 | 0.00 | 0.00 | 55 | 1012.8 |
| 20260504221010 | 65 | 195 | 5.0 | 6.0 | 0.00 | 0.00 | 0.00 | 56 | 1012.6 |
| 20260504220517 | 65 | 191 | 4.0 | 6.0 | 0.00 | 0.00 | 0.00 | 56 | 1012.5 |
| 20260504220010 | 65 | 209 | 2.0 | 6.0 | 0.00 | 0.00 | 0.00 | 56 | 1012.3 |
| 20260504215509 | 66 | 256 | 5.0 | 6.0 | 0.00 | 0.00 | 0.00 | 55 | 1012.3 |
| 20260504215015 | 66 | 261 | 4.0 | 4.0 | 0.00 | 0.00 | 0.00 | 54 | 1012.2 |
| 20260504214509 | 67 | 262 | 4.0 | 5.0 | 0.00 | 0.00 | 0.00 | 52 | 1012.2 |
| 20260504214012 | 67 | 304 | 3.0 | 5.0 | 0.00 | 0.00 | 0.00 | 51 | 1012.2 |
| 20260504213514 | 67 | 306 | 3.0 | 6.0 | 0.00 | 0.00 | 0.00 | 51 | 1012.3 |
| 20260504213009 | 67 | 325 | 2.0 | 5.0 | 0.00 | 0.00 | 0.00 | 51 | 1012.3 |
| 20260504212515 | 67 | 351 | 4.0 | 6.0 | 0.00 | 0.00 | 0.00 | 52 | 1012.3 |
| 20260504212010 | 67 | 316 | 1.0 | 5.0 | 0.00 | 0.00 | 0.00 | 51 | 1012.4 |
| 20260504211517 | 67 | 298 | 1.0 | 4.0 | 0.00 | 0.00 | 0.00 | 51 | 1012.4 |
| 20260504211012 | 67 | 318 | 2.0 | 5.0 | 0.00 | 0.00 | 0.00 | 51 | 1012.4 |
| 20260504210510 | 67 | 312 | 3.0 | 6.0 | 0.00 | 0.00 | 0.00 | 51 | 1012.5 |
| 20260504210016 | 67 | 306 | 2.0 | 4.0 | 0.00 | 0.00 | 0.00 | 51 | 1012.5 |
| 20260504205511 | 67 | 277 | 1.0 | 4.0 | 0.00 | 0.00 | 0.00 | 51 | 1012.5 |
| 20260504205013 | 68 | 287 | 3.0 | 5.0 | 0.00 | 0.00 | 0.00 | 50 | 1012.6 |
| 20260504204512 | 68 | 299 | 2.0 | 5.0 | 0.00 | 0.00 | 0.00 | 49 | 1012.6 |
| 20260504204012 | 68 | 330 | 1.0 | 5.0 | 0.00 | 0.00 | 0.00 | 49 | 1012.7 |
| 20260504203511 | 68 | 303 | 2.0 | 5.0 | 0.00 | 0.00 | 0.00 | 49 | 1012.6 |
| 20260504203013 | 68 | 314 | 2.0 | 4.0 | 0.00 | 0.00 | 0.00 | 49 | 1012.6 |
| 20260504202509 | 68 | 337 | 1.0 | 4.0 | 0.00 | 0.00 | 0.00 | 49 | 1012.6 |
| 20260504202012 | 68 | 314 | 1.0 | 3.0 | 0.00 | 0.00 | 0.00 | 49 | 1012.6 |
| 20260504201510 | 68 | 331 | 2.0 | 3.0 | 0.00 | 0.00 | 0.00 | 49 | 1012.7 |
| 20260504201016 | 68 | 345 | 2.0 | 3.0 | 0.00 | 0.00 | 0.00 | 48 | 1012.7 |
| 20260504200514 | 68 | 339 | 2.0 | 4.0 | 0.00 | 0.00 | 0.00 | 48 | 1012.7 |
| 20260504200013 | 68 | 346 | 4.0 | 6.0 | 0.00 | 0.00 | 0.00 | 48 | 1012.7 |
| 20260504195510 | 68 | 341 | 2.0 | 6.0 | 0.00 | 0.00 | 0.00 | 48 | 1012.6 |
| 20260504195010 | 69 | 329 | 2.0 | 5.0 | 0.00 | 0.00 | 0.00 | 48 | 1012.6 |
| 20260504194514 | 69 | 333 | 2.0 | 7.0 | 0.00 | 0.00 | 0.00 | 48 | 1012.6 |
| 20260504194009 | 69 | 21 | 7.0 | 7.0 | 0.00 | 0.00 | 0.00 | 48 | 1012.6 |
| 20260504193510 | 69 | 358 | 5.0 | 7.0 | 0.00 | 0.00 | 0.00 | 48 | 1012.6 |
| 20260504193013 | 69 | 340 | 5.0 | 7.0 | 0.00 | 0.00 | 0.00 | 47 | 1012.6 |
| 20260504192510 | 69 | 353 | 4.0 | 6.0 | 0.00 | 0.00 | 0.00 | 47 | 1012.6 |
| 20260504192016 | 69 | 352 | 2.0 | 6.0 | 0.00 | 0.00 | 0.00 | 47 | 1012.5 |
| 20260504191511 | 69 | 28 | 5.0 | 6.0 | 0.00 | 0.00 | 0.00 | 46 | 1012.5 |
| 20260504191010 | 69 | 28 | 2.0 | 7.0 | 0.00 | 0.00 | 0.00 | 46 | 1012.5 |
| 20260504190510 | 69 | 351 | 7.0 | 8.0 | 0.00 | 0.00 | 0.00 | 46 | 1012.4 |
| 20260504190010 | 70 | 14 | 5.0 | 6.0 | 0.00 | 0.00 | 0.00 | 46 | 1012.3 |
| 20260504185510 | 70 | 318 | 3.0 | 5.0 | 0.00 | 0.00 | 0.00 | 45 | 1012.3 |
| 20260504185010 | 70 | 356 | 3.0 | 7.0 | 0.00 | 0.00 | 0.00 | 45 | 1012.2 |
| 20260504184511 | 70 | 347 | 3.0 | 4.0 | 0.00 | 0.00 | 0.00 | 44 | 1012.1 |
| 20260504184010 | 70 | 343 | 2.0 | 4.0 | 0.00 | 0.00 | 0.00 | 44 | 1012.2 |
| 20260504183510 | 70 | 342 | 2.0 | 4.0 | 0.00 | 0.00 | 0.00 | 44 | 1012.2 |
| 20260504183013 | 70 | 356 | 1.0 | 4.0 | 0.00 | 0.00 | 0.00 | 43 | 1012.2 |
| 20260504182516 | 70 | 345 | 3.0 | 5.0 | 0.00 | 0.00 | 0.00 | 43 | 1012.1 |
| 20260504182013 | 70 | 306 | 3.0 | 4.0 | 0.00 | 0.00 | 0.00 | 43 | 1012.1 |
| 20260504181514 | 70 | 325 | 0.0 | 5.0 | 0.00 | 0.00 | 0.00 | 43 | 1012.1 |
| 20260504181010 | 70 | 301 | 1.0 | 5.0 | 0.00 | 0.00 | 0.00 | 44 | 1012.1 |
| 20260504180509 | 70 | 342 | 1.0 | 5.0 | 0.00 | 0.00 | 0.00 | 44 | 1012.0 |
| 20260504180009 | 70 | 343 | 2.0 | 5.0 | 0.00 | 0.00 | 0.00 | 44 | 1012.1 |
| 20260504175512 | 70 | 314 | 2.0 | 5.0 | 0.00 | 0.00 | 0.00 | 43 | 1012.1 |
| 20260504175018 | 71 | 40 | 1.0 | 6.0 | 0.00 | 0.00 | 0.00 | 44 | 1012.1 |
| 20260504174511 | 71 | 326 | 5.0 | 6.0 | 0.00 | 0.00 | 0.00 | 44 | 1012.0 |
| 20260504174009 | 71 | 346 | 2.0 | 5.0 | 0.00 | 0.00 | 0.00 | 44 | 1012.0 |
| 20260504173509 | 71 | 343 | 3.0 | 4.0 | 0.00 | 0.00 | 0.00 | 44 | 1012.0 |
| 20260504173012 | 71 | 326 | 1.0 | 4.0 | 0.00 | 0.00 | 0.00 | 44 | 1012.0 |
| 20260504172509 | 71 | 31 | 1.0 | 3.0 | 0.00 | 0.00 | 0.00 | 44 | 1012.1 |
| 20260504172010 | 71 | 282 | 1.0 | 6.0 | 0.00 | 0.00 | 0.00 | 44 | 1012.0 |
| 20260504171511 | 71 | 18 | 0.0 | 2.0 | 0.00 | 0.00 | 0.00 | 44 | 1012.1 |
| 20260504171009 | 71 | 335 | 1.0 | 5.0 | 0.00 | 0.00 | 0.00 | 44 | 1012.0 |
| 20260504170509 | 71 | 351 | 2.0 | 8.0 | 0.00 | 0.00 | 0.00 | 44 | 1012.1 |
| 20260504151016 | 75 | 352 | 1.0 | 5.0 | 0.00 | 0.00 | 0.00 | 38 | 1012.4 |
| 20260504150509 | 75 | 282 | 1.0 | 4.0 | 0.00 | 0.00 | 0.00 | 38 | 1012.5 |
| 20260504141013 | 74 | 277 | 1.0 | 6.0 | 0.00 | 0.00 | 0.00 | 39 | 1012.8 |
| 20260504140513 | 74 | 112 | 5.0 | 5.0 | 0.00 | 0.00 | 0.00 | 39 | 1012.8 |
| 20260504130509 | 72 | 325 | 1.0 | 6.0 | 0.00 | 0.00 | 0.00 | 41 | 1013.1 |
| 20260504110511 | 69 | 297 | 1.0 | 4.0 | 0.00 | 0.00 | 0.00 | 45 | 1014.0 |
| 20260504100514 | 67 | 287 | 2.0 | 6.0 | 0.00 | 0.00 | 0.00 | 46 | 1014.5 |
| 20260504081513 | 64 | 282 | 3.0 | 8.0 | 0.00 | 0.00 | 0.00 | 51 | 1014.2 |
| 20260504081018 | 64 | 282 | 6.0 | 8.0 | 0.00 | 0.00 | 0.00 | 52 | 1014.2 |
| 20260504080517 | 64 | 277 | 4.0 | 6.0 | 0.00 | 0.00 | 0.00 | 53 | 1014.3 |
| 20260504050511 | 55 | 211 | 1.0 | 4.0 | 0.00 | 0.00 | 0.00 | 66 | 1013.4 |
| 20260504050009 | 55 | 208 | 2.0 | 4.0 | 0.00 | 0.00 | 0.00 | 65 | 1013.3 |
| 20260504045515 | 55 | 228 | 3.0 | 5.0 | 0.00 | 0.00 | 0.00 | 65 | 1013.3 |
| 20260504045009 | 55 | 270 | 2.0 | 3.0 | 0.00 | 0.00 | 0.00 | 64 | 1013.3 |
| 20260504044509 | 55 | 270 | 1.0 | 2.0 | 0.00 | 0.00 | 0.00 | 65 | 1013.4 |
| 20260504044009 | 55 | 270 | 0.0 | 3.0 | 0.00 | 0.00 | 0.00 | 65 | 1013.5 |
| 20260504043511 | 55 | 272 | 2.0 | 3.0 | 0.00 | 0.00 | 0.00 | 65 | 1013.6 |
| 20260504043012 | 54 | 272 | 2.0 | 3.0 | 0.00 | 0.00 | 0.00 | 65 | 1013.7 |
| 20260504042509 | 54 | 282 | 3.0 | 3.0 | 0.00 | 0.00 | 0.00 | 66 | 1013.7 |
| 20260504042009 | 55 | 245 | 1.0 | 3.0 | 0.00 | 0.00 | 0.00 | 66 | 1013.8 |
| 20260504041512 | 54 | 245 | 2.0 | 2.0 | 0.00 | 0.00 | 0.00 | 66 | 1013.8 |
| 20260504041009 | 54 | 245 | 1.0 | 2.0 | 0.00 | 0.00 | 0.00 | 66 | 1013.9 |
| 20260504040514 | 54 | 244 | 1.0 | 2.0 | 0.00 | 0.00 | 0.00 | 66 | 1013.9 |
| 20260504040012 | 54 | 238 | 0.0 | 2.0 | 0.00 | 0.00 | 0.00 | 66 | 1013.9 |
| 20260504035509 | 54 | 238 | 1.0 | 2.0 | 0.00 | 0.00 | 0.00 | 66 | 1013.9 |
| 20260504035018 | 54 | 239 | 2.0 | 3.0 | 0.00 | 0.00 | 0.00 | 66 | 1013.9 |
| 20260504034512 | 55 | 235 | 2.0 | 4.0 | 0.00 | 0.00 | 0.00 | 66 | 1014.0 |
| 20260504034016 | 55 | 247 | 3.0 | 5.0 | 0.00 | 0.00 | 0.00 | 66 | 1013.8 |
| 20260504033511 | 55 | 247 | 3.0 | 5.0 | 0.00 | 0.00 | 0.00 | 65 | 1013.8 |
| 20260504033009 | 55 | 244 | 3.0 | 5.0 | 0.00 | 0.00 | 0.00 | 65 | 1013.7 |
| 20260504032515 | 56 | 263 | 2.0 | 4.0 | 0.00 | 0.00 | 0.00 | 63 | 1013.7 |
| 20260504032012 | 56 | 250 | 1.0 | 3.0 | 0.00 | 0.00 | 0.00 | 62 | 1013.6 |
| 20260504031510 | 56 | 252 | 2.0 | 3.0 | 0.00 | 0.00 | 0.00 | 62 | 1013.7 |
| 20260504031009 | 56 | 25 | 1.0 | 2.0 | 0.00 | 0.00 | 0.00 | 62 | 1013.7 |
| 20260504030514 | 56 | 25 | 0.0 | 2.0 | 0.00 | 0.00 | 0.00 | 61 | 1013.8 |
| 20260504030012 | 57 | 25 | 1.0 | 2.0 | 0.00 | 0.00 | 0.00 | 61 | 1013.9 |
| 20260504025509 | 57 | 25 | 0.0 | 0.0 | 0.00 | 0.00 | 0.00 | 60 | 1013.9 |
| 20260504025013 | 57 | 25 | 0.0 | 1.0 | 0.00 | 0.00 | 0.00 | 60 | 1013.9 |
| 20260504024512 | 57 | 25 | 1.0 | 4.0 | 0.00 | 0.00 | 0.00 | 60 | 1014.0 |
| 20260504024012 | 57 | 25 | 2.0 | 4.0 | 0.00 | 0.00 | 0.00 | 60 | 1013.9 |
| 20260504023511 | 57 | 25 | 1.0 | 4.0 | 0.00 | 0.00 | 0.00 | 60 | 1013.8 |
| 20260504023009 | 57 | 353 | 1.0 | 2.0 | 0.00 | 0.00 | 0.00 | 60 | 1013.8 |
| 20260504022513 | 57 | 354 | 1.0 | 1.0 | 0.00 | 0.00 | 0.00 | 60 | 1013.9 |
| 20260504022010 | 57 | 354 | 0.0 | 2.0 | 0.00 | 0.00 | 0.00 | 60 | 1013.9 |
| 20260504021515 | 57 | 354 | 1.0 | 2.0 | 0.00 | 0.00 | 0.00 | 60 | 1013.9 |
| 20260504021012 | 57 | 354 | 1.0 | 2.0 | 0.00 | 0.00 | 0.00 | 60 | 1013.8 |
| 20260504020511 | 57 | 354 | 1.0 | 2.0 | 0.00 | 0.00 | 0.00 | 59 | 1013.8 |
| 20260504020009 | 57 | 354 | 1.0 | 3.0 | 0.00 | 0.00 | 0.00 | 59 | 1013.8 |
| 20260504015512 | 58 | 354 | 0.0 | 2.0 | 0.00 | 0.00 | 0.00 | 59 | 1013.8 |
| 20260504015012 | 58 | 354 | 1.0 | 2.0 | 0.00 | 0.00 | 0.00 | 59 | 1013.8 |
| 20260504014509 | 58 | 12 | 2.0 | 4.0 | 0.00 | 0.00 | 0.00 | 59 | 1013.7 |
| 20260504014009 | 58 | 351 | 2.0 | 5.0 | 0.00 | 0.00 | 0.00 | 58 | 1013.7 |
| 20260504013511 | 58 | 351 | 4.0 | 6.0 | 0.00 | 0.00 | 0.00 | 58 | 1013.7 |
| 20260504013012 | 59 | 347 | 3.0 | 4.0 | 0.00 | 0.00 | 0.00 | 57 | 1013.8 |
| 20260504012515 | 59 | 325 | 2.0 | 4.0 | 0.00 | 0.00 | 0.00 | 56 | 1013.8 |
| 20260504012009 | 59 | 337 | 2.0 | 5.0 | 0.00 | 0.00 | 0.00 | 56 | 1013.9 |
| 20260504011510 | 59 | 332 | 4.0 | 5.0 | 0.00 | 0.00 | 0.00 | 55 | 1013.9 |
| 20260504011012 | 60 | 307 | 4.0 | 6.0 | 0.00 | 0.00 | 0.00 | 55 | 1013.8 |